Orbital Elements at Epoch 2459000.5 (2020-May-31.0) TDB
Reference: JPL 26 (heliocentric ecliptic J2000)
Element | Value | Uncertainty (1-sigma) | Units |
e | .2173554003411893 | 3.3261e-08 | |
a | 2.339011334685314 | 7.9079e-09 | au |
q | 1.830614589632208 | 7.9219e-08 | au |
i | 11.46990955932675 | 4.3055e-06 | deg |
node | 7.04263696366952 | 1.7693e-05 | deg |
peri | 288.4287916460589 | 2.0263e-05 | deg |
M | 329.8504393668356 | 1.2131e-05 | deg |
tp | 2459109.927229359964 (2020-Sep-17.42722936) | 4.4259e-05 | TDB |
period | 1306.612824276248 3.58 | 6.6262e-06 1.814e-08 | d yr |
n | .2755215571984066 | 1.3972e-09 | deg/d |
Q | 2.84740807973842 | 9.6267e-09 | au |
|
| | Orbit Determination Parameters
Additional Information
|